Location: Congrier
(47.8099°N, 1.1170°W)
Time: 14:12:12
(UTC+00:00)

Cosmos 1844 Rocket - Pass Details

Date: 28 January 2023
Orbit: 826 x 843 km, 71.0° (Epoch: 22 March)

Event Time Altitude Azimuth Distance (km) Brightness Sun altitude
Rises 17:39:29 0° 338° (NNW) 3,380 5.9 -7.2°
Reaches altitude 10° 17:42:59 10° 0° (N) 2,441 4.9 -7.8°
Maximum altitude 17:46:18 16° 37° (NE) 2,054 4.2 -8.3°
Enters shadow 17:49:21 11° 71° (ENE) 2,375 4.3 -8.8°
